Track COSMOS 2190 now! 10-day predictions COSMOS 2190 is classified as:
1 21979U 92030D 19053.81002027 -.00000014 +00000-0 +12441-4 0 9992 2 21979 074.0030 187.5299 0031548 171.9219 340.2622 12.52239893221576